www.pogodaiklimat.ru

Погода и климат >> Архив погоды >> Венгрия >> Байя


ПОГОДА в Байе

  • Прогноз погоды в Байе
  • Монитор погоды в Байе

АРХИВ ПОГОДЫ в Байе

Время (UTC), дата Ветер
(напр.,м/с)
 
Видим.   Явления Облачность Т
(С)
Тd
(С)
f
(%)
Тe
(С)
Тes
(С)
Комфортность P
(гПа)
Po
(гПа)
Тmin
(С)
Tmax
(С)
R
(мм)
R24
(мм)
S
(см)
19 15.02 штиль 0 н/о н/о +0.1 -1.5 89 -1 -1 1034.0 1019.6
20 15.02 штиль 0 н/о н/о -1.0 -2.1 92 -2 -2 1034.2 1019.8
21 15.02 штиль 0 н/о н/о -1.7 -2.5 94 -3 -3 1034.2 1019.7
22 15.02 штиль 0 н/о н/о -2.4 -3.1 95 -4 -4 1034.2 1019.7
23 15.02 штиль 0 н/о н/о -2.8 -3.5 95 -4 -4 1034.1 1019.6
00 16.02 штиль 0 н/о н/о -3.0 -3.5 96 -4 -4 1034.1 1019.6
01 16.02 штиль 0 н/о н/о -3.6 -4.3 95 -5 -5 1034.0 1019.4
02 16.02 штиль 0 н/о н/о -3.9 -4.6 95 -5 -5 1033.7 1019.1
03 16.02 штиль 0 н/о н/о -4.1 -4.8 95 -5 -5 1033.5 1018.9
04 16.02 штиль 0 н/о н/о -4.6 -5.3 95 -6 -6 1033.4 1018.8
05 16.02 штиль 0 н/о н/о -4.8 -5.2 97 -6 -6 1033.3 1018.7
06 16.02 штиль 0 н/о н/о -4.7 -5.2 96 -6 -6 1033.5 1018.9 -4.8
07 16.02 Ю 1 н/о н/о -2.2 -2.5 98 -5 -5 1033.8 1019.3
08 16.02 штиль 0 н/о н/о +3.1 +1.3 88 +2 +2 1033.7 1019.5
09 16.02 З 1 н/о н/о +8.1 +2.1 66 +8 +8 1033.3 1019.3
10 16.02 З 1 н/о н/о +10.1 +1.7 56 +10 +10 1033.1 1019.2
11 16.02 З 2 н/о н/о +10.9 +1.7 53 +10 +10 1032.4 1018.6
12 16.02 ЮЗ 2 н/о н/о +12.2 +1.5 48 +12 +12 1031.9 1018.2
13 16.02 ЮЗ 2 н/о н/о +12.5 +1.8 48 +12 +12 1031.4 1017.7
14 16.02 З 1 н/о н/о +12.0 +1.3 48 +12 +12 1031.0 1017.3
15 16.02 ЮЗ 1 н/о н/о +11.0 +1.8 53 +11 +11 1030.7 1016.9
16 16.02 Ю 1 н/о н/о +9.2 +1.1 57 +9 +9 1030.7 1016.8
17 16.02 штиль 0 н/о н/о +3.9 +0.1 76 +3 +3 1031.1 1017.0
18 16.02 штиль 0 н/о н/о +2.1 -0.6 82 +1 +1 1031.4 1017.2 +12.6
19 16.02 штиль 0 н/о н/о +0.5 -1.4 87 -1 -1 1031.5 1017.2
20 16.02 ЮВ 1 н/о н/о -0.3 -1.9 89 -2 -2 1031.6 1017.2
21 16.02 штиль 0 н/о н/о -0.7 -2.0 91 -2 -2 1031.6 1017.2
22 16.02 штиль 0 н/о н/о -1.0 -2.3 91 -2 -2 1031.5 1017.1
23 16.02 штиль 0 н/о н/о -2.2 -3.3 92 -3 -3 1031.3 1016.8
00 17.02 штиль 0 н/о н/о -1.9 -2.7 94 -3 -3 1030.9 1016.5
01 17.02 штиль 0 н/о н/о -2.9 -3.7 94 -4 -4 1030.7 1016.2
02 17.02 ЮВ 1 н/о н/о -3.5 -4.3 94 -6 -6 1030.4 1015.9
03 17.02 ЮВ 1 н/о н/о -2.5 -3.0 96 -5 -5 1030.0 1015.5
04 17.02 штиль 0 н/о н/о -3.1 -3.8 95 -4 -4 1030.0 1015.5
05 17.02 ЮВ 1 н/о н/о -4.3 -5.0 95 -7 -7 1030.2 1015.6
06 17.02 ЮВ 1 н/о н/о -3.8 -4.3 96 -6 -6 1030.5 1016.0 -4.5
07 17.02 штиль 0 н/о н/о -1.5 -1.9 97 -3 -3 1030.7 1016.3
08 17.02 штиль 0 н/о н/о +4.8 +1.8 81 +4 +4 1030.6 1016.5
09 17.02 штиль 0 н/о н/о +8.7 +2.3 64 +8 +8 1030.3 1016.4
10 17.02 Ю 1 н/о н/о +11.4 +1.1 49 +12 +12 1029.9 1016.1
11 17.02 Ю 1 н/о н/о +12.6 +1.0 45 +13 +13 1029.2 1015.5
12 17.02 ЮВ 1 н/о н/о +12.9 +0.6 43 +13 +13 1028.6 1014.9
13 17.02 Ю 1 н/о н/о +13.8 +1.4 43 +14 +14 1027.8 1014.2
14 17.02 ЮВ 1 н/о н/о +13.5 +1.8 45 +14 +14 1027.4 1013.8
15 17.02 Ю 1 н/о н/о +12.6 +1.0 45 +13 +13 1027.1 1013.4
16 17.02 штиль 0 н/о н/о +10.6 +1.2 52 +10 +10 1026.9 1013.1
17 17.02 штиль 0 н/о н/о +6.0 +1.7 74 +5 +5 1027.2 1013.2
18 17.02 штиль 0 н/о н/о +3.2 -0.3 78 +2 +2 1027.4 1013.3 +14.2
19 17.02 штиль 0 н/о н/о +1.5 -0.6 86 0 0 1027.4 1013.2
20 17.02 штиль 0 н/о н/о +0.7 -1.2 87 -0 -0 1027.8 1013.5
21 17.02 штиль 0 н/о н/о 0.0 -1.7 88 -1 -1 1027.8 1013.5
22 17.02 штиль 0 н/о н/о -1.2 -2.6 90 -2 -2 1027.7 1013.3
23 17.02 штиль 0 н/о н/о -1.7 -3.0 91 -3 -3 1027.3 1012.9
00 18.02 штиль 0 н/о н/о -1.9 -2.9 93 -3 -3 1027.4 1013.0
01 18.02 штиль 0 н/о н/о -2.6 -3.7 92 -4 -4 1027.2 1012.8
02 18.02 штиль 0 н/о н/о -3.0 -3.8 94 -4 -4 1026.8 1012.4
03 18.02 штиль 0 н/о н/о -3.2 -3.9 95 -4 -4 1026.4 1012.0
04 18.02 штиль 0 н/о н/о -3.6 -4.4 94 -5 -5 1026.6 1012.1
05 18.02 штиль 0 н/о н/о -3.3 -4.0 95 -5 -5 1026.5 1012.0
06 18.02 штиль 0 н/о н/о -3.4 -3.9 96 -5 -5 1026.6 1012.1 -3.8
07 18.02 штиль 0 н/о н/о -1.1 -1.7 96 -2 -2 1026.9 1012.6
08 18.02 штиль 0 н/о н/о +7.0 +1.5 68 +6 +6 1026.5 1012.6
09 18.02 штиль 0 н/о н/о +10.1 +2.7 60 +10 +10 1026.4 1012.6
10 18.02 ЮВ 2 н/о н/о +11.4 +1.4 50 +11 +11 1026.2 1012.5
11 18.02 Ю 2 н/о н/о +12.7 +1.1 45 +12 +12 1025.5 1011.9
12 18.02 Ю 2 н/о н/о +14.1 +1.1 41 +14 +14 1024.8 1011.2
13 18.02 Ю 2 н/о н/о +14.2 +0.5 39 +14 +14 1023.9 1010.4
14 18.02 ЮВ 1 н/о н/о +14.5 +1.1 40 +15 +15 1023.4 1009.9
15 18.02 Ю 1 н/о н/о +13.7 +1.0 42 +14 +14 1023.2 1009.6
16 18.02 ЮВ 1 н/о н/о +11.4 +1.6 51 +12 +12 1023.0 1009.3
17 18.02 ЮВ 1 н/о н/о +6.7 +1.4 69 +6 +6 1023.2 1009.3
18 18.02 штиль 0 н/о н/о +5.2 +1.0 74 +4 +4 1023.3 1009.3 +14.7
19 18.02 штиль 0 н/о н/о +3.4 +0.5 81 +2 +2 1023.2 1009.1
20 18.02 штиль 0 н/о н/о +2.3 -0.5 82 +1 +1 1023.1 1009.0
21 18.02 штиль 0 н/о н/о +1.8 -0.1 87 +1 +1 1023.0 1008.9
22 18.02 штиль 0 н/о н/о +1.5 -0.1 89 0 0 1022.7 1008.6
23 18.02 ЮВ 1 н/о н/о -0.6 -1.9 91 -3 -3 1022.9 1008.6
00 19.02 В 1 н/о н/о -0.3 -1.1 94 -2 -2 1022.6 1008.4
01 19.02 ЮВ 1 н/о н/о -0.7 -1.8 92 -3 -3 1022.4 1008.1
02 19.02 штиль 0 н/о н/о -0.9 -1.7 94 -2 -2 1021.8 1007.5
03 19.02 В 1 н/о н/о -0.7 -1.4 95 -3 -3 1021.3 1007.1
04 19.02 В 1 н/о н/о -1.0 -1.6 96 -3 -3 1021.3 1007.0
05 19.02 штиль 0 н/о н/о -2.2 -2.7 96 -4 -4 1021.1 1006.8
06 19.02 Ю 1 н/о н/о -3.4 -3.9 96 -6 -6 1021.4 1007.0 -3.4
07 19.02 штиль 0 н/о н/о +0.8 +0.5 98 -1 -1 1021.6 1007.4
08 19.02 В 1 н/о н/о +6.2 +2.8 79 +5 +5 1021.3 1007.4
09 19.02 ЮВ 1 н/о н/о +7.9 +3.6 74 +7 +7 1021.4 1007.6
10 19.02 В 1 н/о н/о +11.2 +4.0 61 +11 +11 1021.1 1007.5
11 19.02 Ю 2 н/о н/о +13.5 +3.0 49 +13 +13 1020.3 1006.8
12 19.02 Ю 2 н/о н/о +14.7 +3.2 46 +15 +15 1019.6 1006.1
13 19.02 З 1 н/о н/о +15.8 +2.6 41 +17 +17 1018.8 1005.4
14 19.02 ЮЗ 1 н/о н/о +16.1 +0.6 35 +17 +17 1018.5 1005.1
15 19.02 З 1 н/о н/о +15.1 +2.0 41 +16 +16 1018.4 1005.0
16 19.02 штиль 0 н/о н/о +13.3 +1.6 45 +13 +13 1018.4 1004.9
17 19.02 С 1 н/о н/о +10.3 +0.9 52 +10 +10 1018.8 1005.1
18 19.02 СЗ 1 н/о н/о +5.7 +0.3 68 +5 +5 1019.4 1005.5 +16.6
19 19.02 штиль 0 н/о н/о +3.4 -0.1 78 +3 +3 1019.6 1005.6
20 19.02 штиль 0 н/о н/о +1.4 -1.5 81 0 0 1020.2 1006.1
21 19.02 штиль 0 н/о н/о +0.2 -1.9 86 -1 -1 1020.3 1006.1
22 19.02 штиль 0 н/о н/о -0.7 -2.1 90 -2 -2 1020.3 1006.1
23 19.02 штиль 0 н/о н/о -1.5 -2.6 92 -3 -3 1020.8 1006.5
00 20.02 штиль 0 н/о н/о -2.2 -3.3 92 -3 -3 1020.8 1006.5
01 20.02 штиль 0 н/о н/о -2.3 -3.3 93 -4 -4 1020.9 1006.6
02 20.02 штиль 0 н/о н/о -2.5 -3.6 92 -4 -4 1020.9 1006.6
03 20.02 штиль 0 н/о н/о -2.5 -3.5 93 -4 -4 1021.0 1006.7
04 20.02 штиль 0 н/о н/о -2.8 -3.8 93 -4 -4 1021.5 1007.1
05 20.02 СЗ 1 н/о н/о -2.7 -3.7 93 -5 -5 1021.9 1007.5
06 20.02 З 1 н/о н/о -1.8 -2.6 94 -4 -4 1022.2 1007.9 -3.0
07 20.02 СЗ 1 н/о н/о +2.3 0.0 85 +1 +1 1022.9 1008.8
08 20.02 З 1 н/о н/о +6.5 +1.4 70 +6 +6 1023.2 1009.3
09 20.02 СЗ 2 н/о н/о +8.3 +1.9 64 +7 +7 1023.5 1009.7
10 20.02 СЗ 3
{8}
н/о н/о +10.3 +2.2 57 +9 +9 1023.9 1010.2
11 20.02 СЗ 2
{8}
н/о н/о +9.1 +2.2 62 +8 +8 1023.8 1010.0
12 20.02 СЗ 2
{7}
н/о н/о +11.5 +2.0 52 +11 +11 1023.5 1009.8
13 20.02 С 3 н/о н/о +12.5 +0.9 45 +11 +11 1023.2 1009.6
14 20.02 С 3
{7}
н/о н/о +12.0 -0.2 43 +11 +11 1023.4 1009.8
15 20.02 С 1 н/о н/о +11.1 -0.1 46 +11 +11 1023.5 1009.8
16 20.02 С 1 н/о н/о +10.5 0.0 48 +11 +11 1023.5 1009.8
17 20.02 С 2 н/о н/о +8.9 +0.4 55 +8 +8 1024.2 1010.4
18 20.02 С 2 н/о н/о +7.7 -0.8 55 +6 +6 1024.9 1011.0 +13.0
19 20.02 С 1 н/о н/о +6.6 -1.1 58 +6 +6 1025.4 1011.5
20 20.02 штиль 0 н/о н/о +2.4 -2.3 71 +2 +2 1025.9 1011.8
21 20.02 штиль 0 н/о н/о -1.0 -3.4 84 -2 -2 1026.5 1012.2
22 20.02 штиль 0 н/о н/о -1.6 -3.5 87 -3 -3 1026.8 1012.4
23 20.02 штиль 0 н/о н/о -2.4 -4.1 88 -4 -4 1027.2 1012.8
00 21.02 штиль 0 н/о н/о -3.0 -4.6 89 -4 -4 1027.5 1013.1
01 21.02 штиль 0 н/о н/о -3.4 -4.8 90 -5 -5 1027.6 1013.1
02 21.02 штиль 0 н/о н/о -3.8 -5.0 91 -5 -5 1027.8 1013.3
03 21.02 штиль 0 н/о н/о -4.3 -5.4 92 -5 -5 1028.1 1013.6
04 21.02 штиль 0 н/о н/о -4.4 -5.4 93 -6 -6 1028.4 1013.9
05 21.02 штиль 0 н/о н/о -5.0 -6.0 93 -6 -6 1028.5 1013.9
06 21.02 штиль 0 н/о н/о -4.9 -5.7 94 -6 -6 1028.7 1014.1 -5.2
07 21.02 штиль 0 н/о н/о -1.2 -1.9 95 -3 -3 1028.9 1014.5
08 21.02 З 1 н/о н/о +6.0 +1.0 70 +5 +5 1028.7 1014.7
09 21.02 З 1 н/о н/о +10.2 -0.3 48 +10 +10 1028.5 1014.7
10 21.02 СЗ 2 н/о н/о +11.4 -1.0 42 +11 +11 1028.3 1014.6
11 21.02 СЗ 3 н/о н/о +13.2 +0.2 41 +12 +12 1027.6 1014.0
12 21.02 З 3
{7}
н/о н/о +13.4 +0.8 42 +13 +13 1027.0 1013.4
13 21.02 СЗ 3
{7}
н/о н/о +13.3 +1.0 43 +12 +12 1026.5 1012.9
14 21.02 З 3
{8}
н/о н/о +13.1 +1.1 44 +12 +12 1026.3 1012.7
15 21.02 З 2 н/о н/о +12.6 +1.6 47 +12 +12 1025.7 1012.1
16 21.02 СЗ 1 н/о н/о +11.2 +1.4 51 +11 +11 1025.5 1011.8
17 21.02 штиль 0 н/о н/о +8.3 +1.0 60 +8 +8 1025.5 1011.7
18 21.02 штиль 0 н/о н/о +4.8 0.0 71 +4 +4 1025.7 1011.7 +13.9
19 21.02 штиль 0 н/о н/о +4.5 +0.3 74 +4 +4 1025.2 1011.2
20 21.02 штиль 0 н/о н/о +2.9 -0.2 80 +2 +2 1025.3 1011.2
21 21.02 штиль 0 н/о н/о +3.0 +0.1 81 +2 +2 1025.1 1011.0
22 21.02 СЗ 2 н/о н/о +7.8 +2.7 70 +6 +6 1025.0 1011.1
23 21.02 З 2
{9}
н/о н/о +7.7 +5.5 86 +6 +6 1024.9 1011.0
00 22.02 штиль 0 н/о н/о +6.8 +6.2 96 +6 +6 1023.7 1009.8 0.7
01 22.02 З 1 н/о н/о +6.5 +6.1 97 +5 +5 1023.3 1009.4
02 22.02 З 1 н/о н/о +6.3 +5.9 97 +5 +5 1022.8 1008.9
03 22.02 З 2 н/о н/о +7.1 +5.7 91 +5 +5 1022.1 1008.2
04 22.02 З 2 н/о н/о +7.4 +4.5 82 +5 +5 1021.4 1007.6
05 22.02 СЗ 2
{8}
н/о н/о +6.3 +4.8 90 +4 +4 1021.4 1007.5
06 22.02 З 1 н/о н/о +5.9 +5.2 95 +5 +5 1020.9 1007.0 +2.1 2
07 22.02 З 1 н/о н/о +6.2 +5.8 97 +5 +5 1020.7 1006.8
08 22.02 З 3
{7}
н/о н/о +7.2 +6.3 94 +4 +4 1020.4 1006.6
09 22.02 СЗ 3
{9}
н/о н/о +7.9 +5.9 87 +5 +5 1020.4 1006.6
10 22.02 СЗ 3
{8}
н/о н/о +8.2 +6.0 86 +5 +5 1020.5 1006.7
11 22.02 СЗ 4
{10}
н/о н/о +9.6 +5.6 76 +7 +7 1020.0 1006.3
12 22.02 С 5
{11}
н/о н/о +11.0 +5.5 69 +8 +8 1019.9 1006.3 0.6
13 22.02 С 4
{9}
н/о н/о +9.8 +5.0 72 +7 +7 1020.4 1006.7
14 22.02 СВ 3
{12}
н/о н/о +4.4 +2.7 89 +1 +1 1022.1 1008.1
15 22.02 СВ 4
{10}
н/о н/о +2.6 -0.3 81 -2 -2 1024.5 1010.4
16 22.02 СВ 4
{11}
н/о н/о +2.6 -4.6 59 -2 -2 1025.5 1011.4
17 22.02 СВ 4
{11}
н/о н/о +2.3 -7.3 49 -2 -2 1027.8 1013.6

 

Местоположение метеостанции Байя (Венгрия): широта 46.18 долгота 19.02 высота над уровнем моря 113 м.

В архиве по умолчанию представлена погода в Байе за последнюю неделю. Архивные данные за месяц целиком и за предыдущие месяцы, начиная с января 2011 года, Вы можете получить, выбрав интересующий диапазон дат из раскрывающегося списка и нажав кнопку "Ввод!".


*Определитесь, кто Вы:
робот инопланетянин человек

Внимание! Время в таблицах - всемирное. Для получения местного времени необходимо прибавить поправку, которая равна 1 ч.

Смотрите также архив погоды в соседних городах и на ближайших метеорологических станциях:

Погода в Пакше (Венгрия) (46 км)
Погода в Сомборе (Сербия) (47 км)
Погода в Паличе (Сербия) (58 км)
Погода в Пече (Венгрия) (64 км)
Погода в Осиек аэропорту (Хорватия) (80 км)
Погода в Осиек-Чепине (Хорватия) (83 км)
Погода в Сегеде (Венгрия) (83 км)
Погода в Капошваре (Венгрия) (94 км)
Погода в Кечкемете (Венгрия) (99 км)
Погода в Шиофоке (Венгрия) (111 км)

Пояснения к столбцам:

Ветер - указаны скорость ветра в м/с - средняя за 10 мин, порывы в срок и между сроками (в фигурных скобках) и направление, откуда дует ветер: С - северный, СВ - северо-восточный, В - восточный, ЮВ - юго-восточный, Ю - южный, ЮЗ - юго-западный, З - западный, СЗ - северо-западный.
Видимость - горизонтальная дальность видимости в метрах или километрах. При видимости от 1 до 10 км при отсутствии осадков обычно наблюдается дымка, при ухудшении видимости до 1 км и менее - туман. В сухую погоду видимость может ухудшаться дымом, пылью или мглою.
Явления - указаны атмосферные явления, наблюдавшиеся в срок или в последний час перед сроком; фигурными скобками обозначены явления, наблюдавшиеся между сроками (за 1-3 часа до срока); квадратными скобками обозначены град или гололедные отложения с указанием их диаметра в мм.
Облачность - указаны через наклонную черту общая и нижняя облачность в баллах и высота нижней границы облаков в метрах; квадратными скобками обозначены формы облаков: Ci - перистые, Cs - перисто-слоистые, Cc - перисто-кучевые, Ac - высококучевые, As - высокослоистые, Sc - слоисто-кучевые, Ns - слоисто-дождевые, Cu - кучевые, Cb - кучево-дождевые. Подробнее классификацию облаков см. в Атласе облаков (PDF).
T - Температура воздуха - температура, измеренная на высоте 2 м над землей.
Td - Температура точки росы - температура, при понижении до которой содержащийся в воздухе водяной пар достигнет насыщения.
f - Относительная влажность воздуха - влажноcть воздуха, измеренная на высоте 2 м над землей.
Te - Эффективная температура - температура, которую ощущает одетый по сезону человек в тени. Характеристика душности погоды. При расчете учитывается влияние влажности воздуха и скорости ветра на теплоощущения человека.
Tes - Эффективная температура на солнце - температура, которую ощущает человек, с поправкой на солнечный нагрев. Характеристика знойности погоды. Зависит от высоты солнца над горизонтом, облачности и скорости ветра. Ночью, в пасмурную погоду, а также при ветре 12 м/с и более поправка равна нулю.
P - Атмосферное давление - приведенное к уровню моря атмосферное давление.
Po - Атмосферное давление - измеренное на уровне метеостанции атмосферное давление.
Tmin - Минимальная температура - минимум температуры воздуха на высоте 2 м над землей.
Tmax - Максимальная температура - максимум температуры воздуха на высоте 2 м над землей.
R - Количество осадков - Количество выпавших осадков за период времени, мм. При наведении курсора мыши на число - период времени, за который выпало указанное количество осадков.
R24 - Количество осадков - Количество выпавших осадков за 24 часа, мм.
S - Снежный покров - Высота снежного покрова, см. При наведении курсора мыши на число - состояние снежного покрова и степень покрытия местности в баллах.